FW8202 Weather Reports


Display with metric or nautical units.
time (UTC)temp
F
wind
direction
speed
MPH
gust
MPH
rain 1hr
in
rain 24hr
in
rain mn
in
humidity
%
barometer
mb
20260507000933 68 317 0.0 0.0 0.00 0.00 0.00 64 1015.6
20260506235901 69 262 0.0 0.0 0.00 0.00 0.00 63 1015.6
20260506233749 71 30 0.0 0.0 0.00 0.00 0.00 59 1015.5
20260506232740 71 163 0.0 0.0 0.00 0.00 0.00 58 1015.6
20260506231757 72 44 0.0 0.0 0.00 0.00 0.00 56 1015.6
20260506230814 72 235 0.0 0.0 0.00 0.00 0.00 58 1015.6
20260506225809 73 36 0.0 0.0 0.00 0.00 0.00 59 1015.8
20260506224755 73 219 0.0 0.0 0.00 0.00 0.00 59 1015.9
20260506223814 72 206 0.0 0.0 0.00 0.00 0.00 59 1016.1
20260506222751 72 250 0.0 0.0 0.00 0.00 0.00 59 1016.2
20260506221741 72 257 0.0 0.0 0.00 0.00 0.00 58 1016.3
20260506220759 72 244 0.0 0.0 0.00 0.00 0.00 58 1016.4
20260506215755 73 229 0.0 0.0 0.00 0.00 0.00 57 1016.5
20260506214735 72 231 0.0 0.0 0.00 0.00 0.00 59 1016.6
20260506210341 72 132 0.0 0.0 0.00 0.00 0.00 60 1016.9
20260506205356 71 112 0.0 0.0 0.00 0.00 0.00 61 1017.0
20260506204419 71 285 0.0 0.0 0.00 0.00 0.00 61 1017.2
20260506202243 70 161 0.0 0.0 0.00 0.00 0.00 62 1017.5
20260506201211 70 161 0.0 0.0 0.00 0.00 0.00 62 1017.6
20260506200206 70 89 0.0 0.0 0.00 0.00 0.00 62 1017.7
20260506194019 69 240 0.0 0.0 0.00 0.00 0.00 64 1017.9
20260506193022 69 242 0.0 0.0 0.00 0.00 0.00 67 1017.9
20260506191958 68 242 0.0 0.0 0.00 0.00 0.00 68 1018.0
20260506190949 68 232 0.0 0.0 0.00 0.00 0.00 70 1018.1
20260506185917 67 230 0.0 0.0 0.00 0.00 0.00 70 1018.1
20260506184938 67 148 0.0 0.0 0.00 0.00 0.00 70 1018.2
20260506183954 67 148 0.0 0.0 0.00 0.00 0.00 72 1018.2
20260506183015 67 150 0.0 0.0 0.00 0.00 0.00 72 1018.1
20260506180852 65 147 0.0 0.0 0.00 0.00 0.00 73 1018.3
20260506175858 64 149 0.0 0.0 0.00 0.00 0.00 75 1018.3
20260506174829 63 143 0.0 0.0 0.00 0.00 0.00 77 1018.4
20260506173850 62 142 0.0 0.0 0.00 0.00 0.00 79 1018.4
20260506172906 60 143 0.0 0.0 0.00 0.00 0.00 81 1018.4
20260506171901 60 141 0.0 0.0 0.00 0.00 0.00 83 1018.4
20260506170916 58 141 0.0 0.0 0.00 0.00 0.00 85 1018.4
20260506165843 57 142 0.0 0.0 0.00 0.00 0.00 87 1018.3
20260506164843 57 142 0.0 0.0 0.00 0.00 0.00 89 1018.3
20260506163837 56 142 0.0 0.0 0.00 0.00 0.00 89 1018.3
20260506162817 56 142 0.0 0.0 0.00 0.00 0.00 91 1018.3
20260506161831 55 142 0.0 0.0 0.00 0.00 0.00 91 1018.3
20260506160832 55 142 0.0 0.0 0.00 0.00 0.00 92 1018.4
20260506060804 51 144 0.0 0.0 0.00 0.00 0.00 88 1017.1
20260506050653 52 144 0.0 0.0 0.00 0.00 0.00 86 1016.6
20260506044637 52 144 0.0 0.0 0.00 0.00 0.00 85 1016.3
20260506043650 52 144 0.0 0.0 0.00 0.00 0.00 84 1016.2
20260506040509 54 144 0.0 0.0 0.00 0.00 0.00 83 1015.8
20260506035445 54 144 0.0 0.0 0.00 0.00 0.00 82 1015.7
20260506034504 54 144 0.0 0.0 0.00 0.00 0.00 81 1015.6
20260506033458 55 144 0.0 0.0 0.00 0.00 0.00 80 1015.5
20260506032427 55 144 0.0 0.0 0.00 0.00 0.00 79 1015.3
20260506031422 56 144 0.0 0.0 0.00 0.00 0.00 78 1015.1
20260506030359 57 144 0.0 0.0 0.00 0.00 0.00 77 1014.9
20260506025342 58 144 0.0 0.0 0.00 0.00 0.00 77 1014.8
20260506024404 58 144 0.0 0.0 0.00 0.00 0.00 77 1014.8
20260506023354 58 144 0.0 0.0 0.00 0.00 0.00 77 1014.6
20260506022342 58 144 0.0 0.0 0.00 0.00 0.00 76 1014.4
20260506021314 58 144 0.0 0.0 0.00 0.00 0.00 76 1014.3
20260506020306 59 144 0.0 0.0 0.00 0.00 0.00 76 1014.2
20260506015246 59 144 0.0 0.0 0.00 0.00 0.00 76 1014.2
20260506014213 59 144 0.0 0.0 0.00 0.00 0.00 76 1014.2
20260506013202 59 144 0.0 0.0 0.00 0.00 0.00 75 1014.1
20260506011016 59 144 0.0 0.0 0.00 0.00 0.00 75 1014.1
20260506005952 58 144 0.0 0.0 0.00 0.00 0.00 74 1014.1
20260506004944 58 144 0.0 0.0 0.00 0.00 0.00 74 1014.0
20260506003948 59 144 0.0 0.0 0.00 0.00 0.00 73 1014.0
20260506002948 59 144 0.0 0.0 0.00 0.00 0.00 72 1013.9
20260506001957 60 143 0.0 0.0 0.00 0.00 0.00 72 1013.9